| time (UTC) | temp F | wind direction | speed MPH | gust MPH | rain 1hr in | rain 24hr in | rain mn in | humidity % | barometer mb |
| 20260902094902 | 65 | 344 | 0.0 | 0.0 | 0.00 | 0.00 | 0.06 | 93 | 1009.7 |
| 20260902093902 | 66 | 135 | 0.0 | 1.0 | 0.00 | 0.00 | 0.06 | 92 | 1009.5 |
| 20260902092902 | 66 | 191 | 3.0 | 4.0 | 0.00 | 0.00 | 0.06 | 92 | 1009.6 |
| 20260902091902 | 66 | 68 | 2.0 | 3.0 | 0.00 | 0.00 | 0.06 | 92 | 1008.8 |
| 20260902091002 | 66 | 58 | 4.0 | 7.0 | 0.00 | 0.00 | 0.06 | 92 | 1008.2 |
| 20260902085932 | 67 | 59 | 4.0 | 7.0 | 0.00 | 0.00 | 0.06 | 92 | 1008.4 |
| 20260902084902 | 67 | 71 | 6.0 | 8.0 | 0.00 | 0.00 | 0.06 | 92 | 1009.0 |
| 20260902083902 | 67 | 76 | 5.0 | 8.0 | 0.00 | 0.00 | 0.06 | 92 | 1009.3 |
| 20260902082902 | 67 | 72 | 4.0 | 7.0 | 0.00 | 0.00 | 0.06 | 91 | 1009.5 |
| 20260902081902 | 68 | 76 | 3.0 | 5.0 | 0.00 | 0.00 | 0.06 | 91 | 1009.8 |
| 20260902080933 | 68 | 73 | 1.0 | 2.0 | 0.00 | 0.00 | 0.06 | 90 | 1010.4 |
| 20260902075902 | 68 | 81 | 1.0 | 3.0 | 0.00 | 0.00 | 0.06 | 90 | 1009.9 |
| 20260902074901 | 68 | 67 | 3.0 | 6.0 | 0.00 | 0.00 | 0.05 | 89 | 1009.2 |
| 20260902073902 | 68 | 93 | 3.0 | 5.0 | 0.00 | 0.00 | 0.05 | 89 | 1009.2 |
| 20260902072902 | 68 | 73 | 2.0 | 3.0 | 0.00 | 0.00 | 0.04 | 88 | 1010.5 |
| 20260902071932 | 69 | 97 | 0.0 | 1.0 | 0.00 | 0.00 | 0.03 | 88 | 1011.3 |
| 20260902070902 | 69 | 173 | 2.0 | 6.0 | 0.00 | 0.00 | 0.02 | 87 | 1012.2 |
| 20260902065903 | 70 | 213 | 2.0 | 5.0 | 0.00 | 0.00 | 0.01 | 87 | 1012.7 |
| 20260902064902 | 71 | 192 | 3.0 | 6.0 | 0.00 | 0.00 | 0.00 | 85 | 1012.4 |
| 20260902063901 | 71 | 82 | 0.0 | 0.0 | 0.00 | 0.00 | 0.00 | 83 | 1012.1 |
| 20260902062902 | 72 | 83 | 0.0 | 0.0 | 0.00 | 0.00 | 0.00 | 81 | 1011.4 |
| 20260902061902 | 73 | 82 | 0.0 | 0.0 | 0.00 | 0.00 | 0.00 | 77 | 1010.4 |
| 20260902060903 | 73 | 56 | 0.0 | 0.0 | 0.00 | 0.00 | 0.00 | 78 | 1010.0 |
| 20260902055901 | 73 | 68 | 3.0 | 4.0 | 0.00 | 0.00 | 0.00 | 76 | 1009.6 |
| 20260902054902 | 72 | 62 | 0.0 | 0.0 | 0.00 | 0.00 | 0.00 | 75 | 1009.7 |
| 20260902053902 | 72 | 52 | 0.0 | 1.0 | 0.00 | 0.00 | 0.00 | 75 | 1010.1 |
| 20260902052903 | 72 | 74 | 0.0 | 0.0 | 0.00 | 0.00 | 0.00 | 75 | 1010.7 |
| 20260902051902 | 72 | 148 | 0.0 | 0.0 | 0.00 | 0.00 | 0.00 | 76 | 1010.8 |
| 20260902050902 | 73 | 51 | 0.0 | 0.0 | 0.00 | 0.00 | 0.00 | 75 | 1010.4 |
| 20260902045932 | 73 | 51 | 0.0 | 0.0 | 0.00 | 0.00 | 0.00 | 74 | 1010.3 |
| 20260902044902 | 73 | 36 | 1.0 | 1.0 | 0.00 | 0.00 | 0.00 | 72 | 1010.0 |
| 20260902043902 | 73 | 64 | 2.0 | 3.0 | 0.00 | 0.00 | 0.00 | 72 | 1009.9 |
| 20260902042902 | 74 | 73 | 1.0 | 2.0 | 0.00 | 0.00 | 0.00 | 73 | 1009.8 |
| 20260902041902 | 74 | 87 | 0.0 | 0.0 | 0.00 | 0.00 | 0.00 | 73 | 1009.9 |
| 20260902035902 | 74 | 70 | 2.0 | 3.0 | 0.00 | 0.00 | 0.00 | 70 | 1009.6 |
| 20260902034902 | 74 | 67 | 2.0 | 3.0 | 0.00 | 0.00 | 0.00 | 70 | 1010.0 |
| 20260902033932 | 74 | 75 | 0.0 | 1.0 | 0.00 | 0.00 | 0.00 | 73 | 1010.4 |
| 20260902032902 | 74 | 75 | 0.0 | 0.0 | 0.00 | 0.00 | 0.00 | 72 | 1010.6 |
| 20260902031902 | 75 | 75 | 0.0 | 0.0 | 0.00 | 0.00 | 0.00 | 72 | 1010.5 |
| 20260902030902 | 75 | 75 | 0.0 | 0.0 | 0.00 | 0.00 | 0.00 | 71 | 1010.4 |
| 20260902025902 | 75 | 73 | 2.0 | 2.0 | 0.00 | 0.00 | 0.00 | 70 | 1010.2 |
| 20260902024932 | 76 | 66 | 0.0 | 0.0 | 0.00 | 0.00 | 0.00 | 70 | 1010.5 |
| 20260902023902 | 76 | 61 | 0.0 | 2.0 | 0.00 | 0.00 | 0.00 | 69 | 1010.2 |
| 20260902022902 | 76 | 74 | 0.0 | 0.0 | 0.00 | 0.00 | 0.00 | 70 | 1010.3 |
| 20260902021902 | 76 | 74 | 0.0 | 0.0 | 0.00 | 0.00 | 0.00 | 69 | 1010.3 |
| 20260902020902 | 76 | 275 | 0.0 | 0.0 | 0.00 | 0.00 | 0.00 | 66 | 1010.3 |
| 20260902015902 | 77 | 275 | 0.0 | 0.0 | 0.00 | 0.00 | 0.00 | 66 | 1010.2 |
| 20260902014902 | 77 | 275 | 0.0 | 0.0 | 0.00 | 0.00 | 0.00 | 66 | 1010.1 |
| 20260902013902 | 77 | 275 | 0.0 | 0.0 | 0.00 | 0.00 | 0.00 | 67 | 1010.1 |
| 20260902012902 | 78 | 275 | 0.0 | 0.0 | 0.00 | 0.00 | 0.00 | 67 | 1010.0 |
| 20260902011902 | 78 | 275 | 0.0 | 0.0 | 0.00 | 0.00 | 0.00 | 66 | 1009.8 |
| 20260902010902 | 78 | 275 | 0.0 | 0.0 | 0.00 | 0.00 | 0.00 | 67 | 1009.8 |
| 20260902005902 | 79 | 275 | 0.0 | 0.0 | 0.00 | 0.00 | 0.00 | 67 | 1009.7 |
| 20260902004902 | 79 | 274 | 0.0 | 0.0 | 0.00 | 0.00 | 0.00 | 67 | 1009.7 |
| 20260902003932 | 79 | 274 | 0.0 | 0.0 | 0.00 | 0.00 | 0.00 | 67 | 1009.7 |
| 20260902002902 | 80 | 274 | 0.0 | 0.0 | 0.00 | 0.00 | 0.00 | 68 | 1009.7 |
| 20260902001902 | 80 | 274 | 0.0 | 0.0 | 0.00 | 0.00 | 0.00 | 67 | 1009.9 |
| 20260901235902 | 82 | 274 | 0.0 | 0.0 | 0.00 | 0.00 | 0.00 | 65 | 1009.9 |
| 20260901234903 | 82 | 274 | 0.0 | 0.0 | 0.00 | 0.00 | 0.00 | 62 | 1009.9 |
| 20260901233901 | 82 | 273 | 0.0 | 0.0 | 0.00 | 0.00 | 0.00 | 60 | 1009.9 |
| 20260901232902 | 82 | 273 | 0.0 | 0.0 | 0.00 | 0.00 | 0.00 | 58 | 1010.1 |
| 20260901231902 | 83 | 274 | 0.0 | 0.0 | 0.00 | 0.00 | 0.00 | 58 | 1010.0 |
| 20260901230902 | 83 | 268 | 0.0 | 0.0 | 0.00 | 0.00 | 0.00 | 56 | 1009.8 |
| 20260901225932 | 83 | 267 | 0.0 | 0.0 | 0.00 | 0.00 | 0.00 | 56 | 1009.7 |
| 20260901224902 | 84 | 267 | 0.0 | 0.0 | 0.00 | 0.00 | 0.00 | 57 | 1009.8 |
| 20260901223902 | 84 | 267 | 0.0 | 0.0 | 0.00 | 0.00 | 0.00 | 59 | 1009.9 |
| 20260901222932 | 84 | 267 | 0.0 | 0.0 | 0.00 | 0.00 | 0.00 | 56 | 1009.9 |
| 20260901221902 | 84 | 269 | 0.0 | 0.0 | 0.00 | 0.00 | 0.00 | 55 | 1009.9 |
| 20260901220902 | 85 | 226 | 0.0 | 1.0 | 0.00 | 0.00 | 0.00 | 53 | 1009.8 |
| 20260901215902 | 85 | 207 | 1.0 | 2.0 | 0.00 | 0.00 | 0.00 | 54 | 1009.8 |
| 20260901215003 | 85 | 248 | 0.0 | 0.0 | 0.00 | 0.00 | 0.00 | 51 | 1009.7 |
| 20260901213902 | 85 | 246 | 1.0 | 2.0 | 0.00 | 0.00 | 0.00 | 50 | 1009.7 |
| 20260901212902 | 86 | 254 | 0.0 | 1.0 | 0.00 | 0.00 | 0.00 | 49 | 1009.7 |
| 20260901211902 | 86 | 233 | 1.0 | 1.0 | 0.00 | 0.00 | 0.00 | 48 | 1009.5 |
| 20260901210902 | 86 | 223 | 1.0 | 2.0 | 0.00 | 0.00 | 0.00 | 44 | 1009.5 |
| 20260901205902 | 87 | 220 | 0.0 | 1.0 | 0.00 | 0.00 | 0.00 | 47 | 1009.5 |
| 20260901204932 | 88 | 242 | 1.0 | 3.0 | 0.00 | 0.00 | 0.00 | 46 | 1009.9 |
| 20260901203902 | 87 | 249 | 2.0 | 3.0 | 0.00 | 0.00 | 0.00 | 44 | 1010.0 |
| 20260901202932 | 87 | 218 | 0.0 | 1.0 | 0.00 | 0.00 | 0.00 | 47 | 1010.1 |
| 20260901201902 | 87 | 261 | 0.0 | 1.0 | 0.00 | 0.00 | 0.00 | 47 | 1010.0 |
| 20260901200902 | 86 | 246 | 1.0 | 2.0 | 0.00 | 0.00 | 0.00 | 49 | 1010.0 |
| 20260901195902 | 86 | 256 | 0.0 | 0.0 | 0.00 | 0.00 | 0.00 | 49 | 1010.2 |
| 20260901194903 | 86 | 313 | 0.0 | 1.0 | 0.00 | 0.00 | 0.00 | 51 | 1010.0 |
| 20260901193902 | 87 | 244 | 0.0 | 1.0 | 0.00 | 0.00 | 0.00 | 49 | 1010.2 |
| 20260901192902 | 87 | 244 | 1.0 | 1.0 | 0.00 | 0.00 | 0.00 | 47 | 1010.3 |
| 20260901191932 | 88 | 297 | 0.0 | 0.0 | 0.00 | 0.00 | 0.00 | 49 | 1010.3 |
| 20260901190933 | 90 | 239 | 0.0 | 1.0 | 0.00 | 0.00 | 0.00 | 48 | 1010.2 |
| 20260901185901 | 90 | 292 | 0.0 | 0.0 | 0.00 | 0.00 | 0.00 | 48 | 1010.1 |
| 20260901184902 | 88 | 258 | 0.0 | 1.0 | 0.00 | 0.00 | 0.00 | 49 | 1010.3 |
| 20260901183902 | 87 | 288 | 0.0 | 0.0 | 0.00 | 0.00 | 0.00 | 51 | 1010.4 |
| 20260901182903 | 87 | 259 | 0.0 | 0.0 | 0.00 | 0.00 | 0.00 | 54 | 1010.6 |
| 20260901181932 | 86 | 208 | 0.0 | 0.0 | 0.00 | 0.00 | 0.00 | 53 | 1010.8 |
| 20260901180902 | 86 | 236 | 0.0 | 0.0 | 0.00 | 0.00 | 0.00 | 54 | 1010.9 |
| 20260901180002 | 86 | 273 | 0.0 | 0.0 | 0.00 | 0.00 | 0.00 | 54 | 1011.0 |
| 20260901174932 | 87 | 292 | 0.0 | 0.0 | 0.00 | 0.00 | 0.00 | 54 | 1011.1 |
| 20260901173902 | 87 | 171 | 0.0 | 0.0 | 0.00 | 0.00 | 0.00 | 51 | 1011.2 |
| 20260901172902 | 87 | 124 | 0.0 | 1.0 | 0.00 | 0.00 | 0.00 | 53 | 1011.2 |
| 20260901171902 | 86 | 75 | 0.0 | 1.0 | 0.00 | 0.00 | 0.00 | 56 | 1011.4 |
| 20260901170902 | 86 | 290 | 0.0 | 0.0 | 0.00 | 0.00 | 0.00 | 55 | 1011.3 |
| 20260901165902 | 86 | 325 | 0.0 | 0.0 | 0.00 | 0.00 | 0.00 | 54 | 1011.5 |
| 20260901164902 | 85 | 276 | 0.0 | 0.0 | 0.00 | 0.00 | 0.00 | 55 | 1011.4 |
| 20260901163902 | 84 | 270 | 0.0 | 0.0 | 0.00 | 0.00 | 0.00 | 58 | 1011.4 |
| 20260901162902 | 83 | 260 | 0.0 | 1.0 | 0.00 | 0.00 | 0.00 | 57 | 1011.5 |
| 20260901161902 | 81 | 249 | 0.0 | 0.0 | 0.00 | 0.00 | 0.00 | 63 | 1011.2 |
| 20260901160902 | 80 | 317 | 0.0 | 0.0 | 0.00 | 0.00 | 0.00 | 63 | 1011.1 |
| 20260901155902 | 80 | 237 | 0.0 | 0.0 | 0.00 | 0.00 | 0.00 | 66 | 1011.3 |
| 20260901154902 | 79 | 228 | 0.0 | 0.0 | 0.00 | 0.00 | 0.00 | 67 | 1011.4 |
| 20260901153902 | 78 | 290 | 0.0 | 0.0 | 0.00 | 0.00 | 0.00 | 70 | 1011.4 |
| 20260901152903 | 78 | 271 | 0.0 | 0.0 | 0.00 | 0.00 | 0.00 | 72 | 1011.4 |
| 20260901151901 | 77 | 301 | 0.0 | 0.0 | 0.00 | 0.00 | 0.00 | 74 | 1011.4 |
| 20260901150902 | 76 | 280 | 0.0 | 0.0 | 0.00 | 0.00 | 0.00 | 75 | 1011.6 |
| 20260901145902 | 76 | 262 | 0.0 | 0.0 | 0.00 | 0.00 | 0.00 | 78 | 1011.7 |
| 20260901144902 | 75 | 260 | 0.0 | 0.0 | 0.00 | 0.00 | 0.00 | 80 | 1011.6 |
| 20260901143902 | 75 | 259 | 0.0 | 0.0 | 0.00 | 0.00 | 0.00 | 82 | 1011.8 |
| 20260901142902 | 74 | 252 | 0.0 | 0.0 | 0.00 | 0.00 | 0.00 | 83 | 1011.8 |
| 20260901141902 | 73 | 201 | 0.0 | 0.0 | 0.00 | 0.00 | 0.00 | 84 | 1011.8 |
| 20260901140902 | 72 | 201 | 0.0 | 0.0 | 0.00 | 0.00 | 0.00 | 86 | 1011.8 |
| 20260901135933 | 71 | 201 | 0.0 | 0.0 | 0.00 | 0.00 | 0.00 | 88 | 1011.8 |
| 20260901134902 | 70 | 201 | 0.0 | 0.0 | 0.00 | 0.00 | 0.00 | 90 | 1011.9 |
| 20260901133902 | 70 | 201 | 0.0 | 0.0 | 0.00 | 0.00 | 0.00 | 91 | 1012.0 |
| 20260901132902 | 69 | 201 | 0.0 | 0.0 | 0.00 | 0.00 | 0.00 | 92 | 1011.9 |
| 20260901131932 | 69 | 201 | 0.0 | 0.0 | 0.00 | 0.00 | 0.00 | 93 | 1011.8 |
| 20260901130902 | 68 | 201 | 0.0 | 0.0 | 0.00 | 0.00 | 0.00 | 94 | 1011.6 |
| 20260901125902 | 68 | 201 | 0.0 | 0.0 | 0.00 | 0.00 | 0.00 | 94 | 1011.7 |
| 20260901124902 | 68 | 201 | 0.0 | 0.0 | 0.00 | 0.00 | 0.00 | 94 | 1011.7 |
| 20260901123902 | 67 | 201 | 0.0 | 0.0 | 0.00 | 0.00 | 0.00 | 94 | 1011.7 |
| 20260901122902 | 67 | 201 | 0.0 | 0.0 | 0.00 | 0.00 | 0.00 | 94 | 1011.5 |
| 20260901121902 | 67 | 201 | 0.0 | 0.0 | 0.00 | 0.00 | 0.00 | 95 | 1011.4 |
| 20260901120902 | 67 | 201 | 0.0 | 0.0 | 0.00 | 0.00 | 0.00 | 94 | 1011.2 |
| 20260901115932 | 66 | 201 | 0.0 | 0.0 | 0.00 | 0.00 | 0.00 | 95 | 1011.2 |
| 20260901114902 | 66 | 200 | 0.0 | 0.0 | 0.00 | 0.00 | 0.00 | 94 | 1011.0 |
| 20260901113902 | 66 | 200 | 0.0 | 0.0 | 0.00 | 0.00 | 0.00 | 94 | 1010.8 |
| 20260901112902 | 66 | 200 | 0.0 | 0.0 | 0.00 | 0.00 | 0.00 | 94 | 1010.7 |
| 20260901112002 | 66 | 200 | 0.0 | 0.0 | 0.00 | 0.00 | 0.00 | 94 | 1010.5 |
| 20260901110902 | 66 | 200 | 0.0 | 0.0 | 0.00 | 0.00 | 0.00 | 93 | 1010.6 |
| 20260901105902 | 66 | 200 | 0.0 | 0.0 | 0.00 | 0.00 | 0.00 | 93 | 1010.4 |
| 20260901104902 | 66 | 200 | 0.0 | 0.0 | 0.00 | 0.00 | 0.00 | 93 | 1010.3 |
| 20260901103902 | 67 | 200 | 0.0 | 0.0 | 0.00 | 0.00 | 0.00 | 93 | 1010.2 |
| 20260901102902 | 67 | 200 | 0.0 | 0.0 | 0.00 | 0.00 | 0.00 | 93 | 1010.1 |
| 20260901101902 | 67 | 200 | 0.0 | 0.0 | 0.00 | 0.00 | 0.00 | 93 | 1010.3 |
| 20260901100902 | 67 | 200 | 0.0 | 0.0 | 0.00 | 0.00 | 0.00 | 93 | 1010.3 |
| 20260901095902 | 67 | 311 | 0.0 | 0.0 | 0.00 | 0.00 | 0.00 | 93 | 1010.2 |